Theta_e
295 294 294 294 294 293 293 293 292 292 292 291 291 291 291 291 291 291 291 291 291 289 288 287 287 286 285 285 285 284 285 285 287 285 284 283 282 281 280 281 281 281 280
294 293 292 291 291 290 290 290 290 290 290 290 289 289 289 289 289 290 290 289 288 287 285 285 285 284 283 283 283 282 283 282 283 283 282 282 280 280 279 280 280 280 280
292 291 290 289 288 288 288 288 288 288 288 288 288 288 288 288 288 288 288 287 286 284 284 284 282 283 282 282 281 281 281 281 281 281 281 280 278 278 277 277 278 278 279
291 289 288 288 287 287 287 287 287 287 287 287 287 287 287 287 287 287 286 285 284 282 283 281 281 281 281 280 280 279 279 280 279 279 279 278 277 276 276 275 275 275 277
291 289 288 287 287 286 285 285 285 286 286 286 285 285 285 285 285 284 284 283 283 281 280 280 279 280 280 280 279 278 278 279 278 278 277 276 276 275 275 274 274 274 275
290 289 288 287 285 285 285 284 284 284 284 285 284 284 283 284 283 283 282 281 281 280 279 277 278 278 279 279 278 278 278 277 276 276 275 275 274 274 273 273 273 272 273
289 288 287 285 284 283 283 283 283 283 283 283 283 283 282 283 282 281 280 280 279 278 278 277 276 277 277 277 276 276 277 276 275 273 273 273 273 273 272 272 271 270 270
288 286 286 285 283 283 282 282 282 282 282 282 282 282 281 281 281 280 279 278 277 277 277 276 276 277 277 275 274 274 274 273 272 271 271 271 272 271 271 270 268 267 269
286 286 285 284 283 282 281 281 281 281 281 281 281 281 281 280 280 279 278 277 276 275 275 275 275 276 276 274 274 274 273 272 270 270 270 270 270 269 269 268 267 266 266
286 285 283 282 282 281 281 280 280 280 280 279 280 280 280 279 279 278 277 276 276 275 274 274 275 275 275 273 272 272 272 270 269 269 268 268 268 267 266 266 265 265 265
285 284 283 283 282 281 280 280 279 279 279 278 278 278 278 279 279 277 277 276 275 274 274 272 273 274 273 272 271 271 270 268 267 267 267 266 266 265 264 264 264 264 264
284 283 282 281 281 280 280 279 279 278 278 277 277 276 277 277 277 278 276 275 275 274 273 271 272 272 272 270 269 269 267 266 266 266 266 265 264 263 263 264 264 263 263
282 281 280 280 279 279 279 278 278 278 277 276 275 275 275 275 276 276 276 275 273 272 271 270 271 270 269 267 267 266 265 265 264 264 263 262 262 262 262 262 262 262 263
280 279 278 278 277 277 277 277 277 277 277 276 275 274 273 274 274 274 273 273 273 270 269 268 268 267 266 265 264 264 263 263 262 262 261 261 261 261 261 260 260 259 260
278 277 277 276 276 276 276 276 276 276 276 275 275 274 273 272 272 272 272 271 271 270 269 266 266 265 264 264 263 263 262 261 261 261 260 259 259 259 260 260 259 258 257
276 275 275 275 275 275 274 274 275 276 275 275 274 274 272 272 273 274 273 273 271 268 268 265 264 264 263 263 262 261 261 261 260 260 259 258 258 258 258 259 258 257 256
275 274 274 274 273 273 273 273 273 275 274 274 273 272 272 272 273 273 273 272 271 267 266 264 263 262 262 261 261 260 260 260 259 258 258 257 257 257 256 257 257 256 256
274 274 273 273 272 272 272 272 273 274 274 273 273 272 272 272 271 272 272 270 267 265 264 263 263 262 261 260 260 260 260 259 259 258 258 257 257 256 257 256 256 255 255
272 271 271 271 271 271 271 271 271 271 270 270 270 270 271 270 270 271 269 267 266 264 263 262 262 261 261 260 260 260 259 259 259 258 258 258 257 256 257 256 255 255 254
270 270 270 270 269 269 269 269 269 269 268 268 267 267 267 266 267 268 266 265 263 263 262 262 261 260 260 260 259 259 259 259 259 259 258 258 258 257 256 256 256 255 255
269 269 269 269 269 269 268 268 268 267 267 267 266 266 266 265 264 265 264 264 262 262 262 261 260 260 260 259 259 259 259 260 259 259 258 258 257 258 257 256 256 255 255
268 267 267 267 267 267 267 267 266 266 266 265 265 264 266 264 263 263 263 263 262 261 261 261 261 261 260 260 259 259 259 259 259 259 258 257 257 258 257 256 256 255 255
266 266 266 266 266 266 265 265 265 265 265 264 263 263 263 264 264 263 262 261 261 261 260 260 261 261 260 260 259 259 259 260 259 258 258 257 258 258 257 256 256 255 255
266 266 265 265 265 264 264 264 263 263 262 262 262 262 261 261 261 261 260 260 260 260 260 260 260 260 260 260 260 259 259 259 259 258 257 257 257 257 257 257 257 256 255
265 265 265 264 264 263 262 262 262 262 261 261 261 260 260 260 260 260 260 260 260 260 260 260 259 259 260 260 260 259 259 259 259 258 258 257 257 257 257 257 257 256 256
264 263 263 262 262 262 262 261 261 261 261 261 260 260 260 260 260 260 260 260 260 260 260 260 260 260 259 259 259 259 259 259 259 259 258 257 258 258 258 258 258 257 257
Wind_Speed
13 12 12 12 11 11 11 11 11 12 11 11 11 11 11 12 12 14 15 16 16 17 16 17 17 15 15 13 12 12 11 7 3 1 5 12 15 18 24 23 24 26 30
17 17 16 15 15 14 13 12 12 12 12 12 12 12 12 13 14 15 17 17 19 19 17 17 16 14 13 11 10 11 9 7 4 1 5 10 12 14 24 25 26 27 31
22 21 20 18 16 15 14 13 13 13 13 13 13 13 13 14 15 16 17 18 18 18 17 15 14 12 12 10 9 8 7 5 4 2 2 6 9 14 23 25 26 31 32
26 24 23 21 20 18 17 16 15 15 14 14 13 14 15 16 16 18 18 19 19 17 16 14 12 10 9 7 6 6 5 5 4 4 1 4 7 15 18 22 28 33 35
31 29 28 24 22 20 19 18 18 17 17 16 16 16 17 17 18 19 19 18 19 17 14 12 11 10 8 6 5 5 5 4 5 5 5 6 7 11 18 20 19 24 25
37 36 31 28 27 26 24 23 21 21 21 20 18 18 18 18 17 18 19 19 17 17 15 12 10 9 8 8 8 7 6 4 6 5 5 7 10 13 16 18 18 18 8
38 36 33 31 29 26 25 24 24 24 24 22 20 19 18 18 15 17 20 18 17 16 12 9 6 5 4 7 7 6 8 10 11 6 6 7 8 13 14 16 17 15 13
37 36 37 35 32 30 28 28 27 28 28 26 24 21 21 17 16 15 18 19 17 15 15 12 9 8 3 4 4 5 4 6 8 7 7 6 7 9 10 11 14 17 25
35 38 41 40 36 34 33 32 30 29 28 27 25 23 21 19 15 16 15 17 16 13 11 10 8 7 4 5 7 5 4 3 5 6 5 5 6 9 11 12 18 22 7
32 32 31 32 32 33 31 31 30 28 28 25 25 21 19 19 15 15 14 16 15 14 11 11 7 6 5 4 5 4 2 3 5 5 4 4 7 9 10 11 10 12 10
25 27 31 34 35 33 32 31 30 27 25 23 22 20 18 17 14 12 12 11 13 15 12 9 8 6 6 6 5 4 2 1 3 5 6 7 9 11 11 12 11 10 11
23 27 30 32 32 31 30 27 29 28 25 23 22 23 18 17 14 11 11 10 11 15 11 8 8 7 6 5 6 5 4 1 3 4 6 9 11 13 14 14 13 13 11
23 26 28 28 29 29 30 28 24 25 24 24 23 21 22 21 16 12 11 10 10 11 10 8 9 7 7 6 6 3 1 2 3 5 7 7 8 11 12 15 15 17 17
24 25 26 26 23 23 22 23 23 23 22 22 22 21 20 22 21 18 15 12 11 11 10 9 8 7 4 4 4 2 2 2 2 4 5 7 8 10 13 15 19 20 20
21 21 20 20 21 19 17 17 17 17 19 20 20 23 24 21 23 19 16 14 14 11 10 10 8 7 5 4 4 4 3 3 3 5 7 9 10 12 15 16 18 19 18
18 18 18 18 19 22 21 15 14 19 13 13 16 21 19 18 16 14 14 12 12 14 11 9 8 7 6 7 7 6 4 4 5 7 8 9 10 12 15 18 18 16 18
18 18 19 20 20 21 22 22 18 15 14 15 16 14 15 17 15 14 14 15 13 12 10 11 10 9 9 8 7 7 6 6 7 8 9 9 10 12 15 17 19 18 21
16 20 23 24 21 21 22 22 22 23 21 21 18 18 17 16 15 14 14 15 14 10 11 12 12 11 10 9 9 8 8 8 9 9 11 11 12 13 16 18 20 20 21
13 13 15 17 18 18 19 20 19 18 18 21 19 13 13 13 12 13 14 15 15 14 14 14 13 12 11 10 9 9 10 11 12 12 13 13 12 14 17 18 20 21 21
11 14 16 18 19 19 20 20 19 19 19 20 20 18 19 17 17 18 17 14 13 14 14 13 12 12 11 10 10 10 11 13 14 14 15 15 14 15 18 19 20 21 24
13 12 14 16 17 19 19 19 19 19 18 18 20 20 19 20 20 20 19 16 16 15 14 14 13 13 11 11 11 12 14 15 17 17 17 16 15 17 19 20 21 22 23
11 12 13 14 15 15 15 16 17 17 17 18 17 16 15 18 17 18 18 17 16 15 14 15 15 14 13 13 13 15 17 19 20 19 18 18 18 19 21 22 23 24 25
11 10 11 11 11 11 11 12 13 14 15 15 17 17 19 19 19 18 18 16 16 16 16 17 17 16 15 15 16 17 19 20 19 20 21 21 21 22 23 24 25 26 26
8 9 9 10 11 12 13 14 14 14 14 15 16 17 18 18 18 17 16 15 16 17 17 18 19 19 18 17 17 18 20 20 20 21 22 23 23 23 24 25 26 27 28
10 11 12 13 13 13 13 13 13 13 14 14 14 15 15 15 16 16 15 15 17 18 19 19 19 20 20 20 19 20 20 21 22 22 23 23 24 24 24 25 27 28 30
11 12 12 12 12 12 12 13 13 14 14 14 14 14 14 15 16 16 15 17 18 19 20 20 20 20 20 21 21 21 22 22 23 23 21 20 22 24 26 28 29 29 31
Wind_Direction
225 222 219 213 208 204 200 195 190 188 186 184 181 175 169 164 160 158 150 147 143 136 135 132 125 126 116 111 106 97 96 95 112 244 312 345 357 354 359 6 7 7 3
223 220 216 214 208 203 198 195 193 190 186 188 182 178 171 165 159 158 154 151 146 140 135 132 126 127 115 111 106 95 103 90 120 178 309 343 346 349 354 0 2 2 1
221 219 215 212 210 205 201 198 195 194 191 187 184 179 171 169 165 160 158 151 144 139 139 138 129 135 121 110 111 100 106 101 101 144 306 322 337 341 357 358 356 354 358
220 217 215 213 212 209 204 200 198 196 192 187 184 179 173 167 166 163 159 152 146 142 139 135 125 119 116 113 101 88 82 88 70 54 347 335 350 346 1 358 350 350 353
220 218 218 215 213 209 204 200 197 196 194 191 183 177 172 170 169 165 161 157 151 140 136 130 123 113 94 99 105 87 81 69 43 39 28 8 4 2 4 343 342 341 353
220 220 216 213 211 208 204 200 195 192 189 186 182 177 173 173 167 167 164 158 156 151 149 138 136 125 109 102 101 88 70 69 52 32 26 14 1 357 353 351 350 354 346
219 220 217 214 212 208 203 198 196 192 189 187 182 178 175 168 154 161 162 160 159 156 157 151 130 102 112 136 117 98 90 65 57 45 36 19 356 353 344 350 352 345 322
215 213 215 213 211 208 203 201 199 195 192 188 183 179 172 167 159 159 164 161 158 160 168 168 152 124 87 157 133 106 93 55 46 39 30 10 359 354 0 352 344 335 336
210 210 210 209 202 204 200 199 199 194 192 191 186 176 176 164 166 161 163 159 151 150 152 151 151 131 107 124 136 125 119 46 40 22 33 23 20 19 12 351 7 1 335
212 209 203 200 200 198 199 198 198 193 188 182 182 181 178 163 163 172 172 161 153 154 151 138 118 133 121 113 126 123 103 3 352 352 358 5 9 14 19 18 3 359 354
216 207 205 207 207 207 201 198 195 186 182 181 183 180 172 163 162 170 168 169 165 163 163 165 145 138 129 112 101 94 80 235 332 347 356 10 10 12 10 6 1 352 343
212 206 205 204 200 199 197 192 189 178 175 174 173 175 174 170 161 162 165 165 165 168 163 168 153 140 134 115 98 108 112 63 357 352 7 13 3 1 357 352 346 343 327
205 200 202 200 196 194 187 182 182 181 177 172 172 169 171 168 167 166 162 151 149 149 171 160 148 141 155 119 89 107 205 325 351 8 20 6 354 348 345 341 343 344 335
201 197 197 185 182 183 184 185 186 187 184 179 173 168 170 176 173 171 163 157 148 151 150 152 152 157 143 173 197 247 268 306 351 359 348 343 342 346 345 345 342 346 338
201 190 177 172 171 171 176 185 191 198 196 187 182 175 171 181 189 188 181 178 190 199 191 183 186 192 196 208 235 251 265 303 334 340 339 339 342 340 339 340 342 342 333
182 174 170 165 165 164 162 156 186 198 188 189 196 197 189 194 178 187 185 180 170 169 184 193 199 204 214 222 234 249 268 296 321 324 327 329 329 329 327 331 335 336 324
183 170 166 165 160 157 155 158 146 162 166 163 161 170 183 173 184 184 184 173 170 181 198 200 205 211 219 228 239 255 274 293 301 311 310 315 315 315 319 324 328 329 325
198 189 179 170 174 169 167 163 160 163 163 157 160 163 170 177 183 186 183 175 176 203 211 210 213 218 224 234 244 258 272 284 294 298 300 303 306 311 314 317 320 322 322
182 176 171 162 164 162 157 155 160 153 148 146 145 156 173 179 186 193 184 209 216 222 219 218 220 226 235 244 254 265 279 289 296 298 298 299 301 302 305 312 313 317 317
176 175 172 164 159 161 162 160 166 171 166 168 176 183 181 181 194 197 209 223 228 227 224 226 230 237 244 252 261 269 277 285 291 292 296 296 297 297 301 311 311 312 312
171 171 175 169 172 177 178 180 184 184 187 196 206 212 212 214 215 217 227 235 237 234 234 238 239 246 253 260 267 274 279 285 291 295 295 291 291 296 302 305 305 306 306
175 174 174 174 175 179 183 188 189 193 199 206 209 207 205 221 221 226 230 238 243 243 242 246 252 257 262 267 272 275 280 284 287 290 291 290 290 293 297 300 301 302 305
177 176 178 181 186 188 192 197 200 205 210 212 209 208 207 217 225 231 239 242 243 247 249 255 261 264 267 270 271 274 276 280 288 288 287 287 285 286 291 295 299 299 300
197 196 197 202 203 205 207 208 209 211 211 212 214 217 222 227 234 240 242 242 245 249 252 257 262 267 269 270 271 271 274 281 283 284 286 284 282 282 286 291 293 295 296
222 218 215 215 212 215 216 217 220 221 222 226 226 228 233 236 241 244 247 249 252 255 257 260 263 267 272 275 275 277 279 280 281 283 282 281 280 281 282 284 288 292 294
239 233 231 228 225 224 225 228 232 235 238 240 244 247 248 249 251 253 255 258 262 262 266 267 268 272 274 275 278 279 279 279 278 277 278 278 277 280 284 284 287 287 292